Location: Capannuccia
(43.7000°N, 11.3000°E)
Time: 18:51:33
(UTC+00:00)

SL-16 R/B - Pass Details

Date: 07 June 2020
Orbit: 986 x 1006 km, 99.5° (Epoch: 05 July)

Event Time Altitude Azimuth Distance (km) Brightness Sun altitude
Exits shadow 00:10:23 15° 133° (SE) 2,363 4.2 -22.3°
Maximum altitude 00:15:06 45° 66° (ENE) 1,323 3.4 -22.0°
Drops below altitude 10° 00:20:56 10° 357° (N) 2,762 5.9 -21.8°
Sets 00:23:30 0° 351° (N) 3,718 6.6 -21.6°
